Preview of NWS' New Version of Forecast
This preview is not operational and should not be used for support decisions.

Regional Weather Roundup (RWR)

Issued by National Weather Service (NWS)

                            
000
ASUS43 KMKX 162000
RWRWI 

WISCONSIN REGIONAL WEATHER ROUNDUP
NATIONAL WEATHER SERVICE MILWAUKEE/SULLIVAN WI
300 PM CDT SUN JUN 16 2019

NOTE: "FAIR" INDICATES FEW OR NO CLOUDS BELOW 12,000 FEET WITH NO
SIGNIFICANT WEATHER AND/OR OBSTRUCTIONS TO VISIBILITY.

WIZ001-002-006>008-014>016-023>028-162100-
NORTHWEST WISCONSIN
  
CITY           SKY/WX    TMP DP  RH WIND       PRES   REMARKS
SUPERIOR ARPT  CLOUDY    53  46  75 NE9G17    29.98S                  
ASHLAND        FAIR      61  48  62 NE14      29.97S                  
HAYWARD        PTSUNNY   70  41  34 E7        29.92F                  
SIREN          FAIR      71  41  33 NE5       29.91F                  
CUMBERLAND     FAIR      66  41  39 SE3       29.92F                  
RICE LAKE      PTSUNNY   68  44  41 SE6       29.93F                  
CHETEK         CLOUDY    68  49  50 N5        29.92S                  
LADYSMITH      FAIR      67  47  47 NE6       29.94F                  
EAU CLAIRE     NOT AVBL                                               
MENOMONIE      CLOUDY    63  50  63 NE6       29.91F                  
NEW RICHMOND   CLOUDY    68  50  53 CALM      29.91F                  
OSCEOLA        FAIR      70  50  48 SE3       29.93F                  
$$
 
WIZ003>005-009-010-017-018-162100-
NORTH CENTRAL WISCONSIN
  
CITY           SKY/WX    TMP DP  RH WIND       PRES   REMARKS
MANITOWISH WTR FAIR      67  40  36 CALM      29.94F                  
ARBOR VITAE    FAIR      69  40  34 NE8       29.94S                  
WOODRUFF       FAIR      69  40  34 NE8       29.94S                  
RHINELANDER    FAIR      71  39  31 VRB3      29.93F                  
EAGLE RIVER    FAIR      69  38  31 E7        29.93F                  
LAND O LAKES   FAIR      70  36  29 CALM      29.95F                  
PHILLIPS       FAIR      67  44  42 NE3       29.92F                  
TOMAHAWK       FAIR      67  47  48 CALM      29.93F                  
MEDFORD        CLOUDY    62  49  62 SE7       29.93F                  
MERRILL        CLOUDY    65  49  55 SE5       29.94F                  
$$
 
WIZ029-030-035-036-043>047-162100-
CENTRAL WISCONSIN
  
CITY           SKY/WX    TMP DP  RH WIND       PRES   REMARKS
WAUSAU         CLOUDY    60  46  59 SE6       29.93S                  
MOSINEE        CLOUDY    57  50  77 E3        29.96S                  
MARSHFIELD     CLOUDY    57  51  80 E9        29.93F                  
STEVENS POINT  CLOUDY    55  48  75 CALM      29.95F                  
WAUPACA        CLOUDY    62  54  74 NE3       29.94F                  
WAUTOMA        CLOUDY    55  50  83 E6        29.94R                  
WISC RAPIDS    CLOUDY    56  51  84 E8        29.94F                  
CAMP DOUGLAS   CLOUDY    57  57 100 E7        29.92S                  
$$
 
WIZ011>013-019>022-031-037>040-048>050-162100-
NORTHEAST WISCONSIN
  
CITY           SKY/WX    TMP DP  RH WIND       PRES   REMARKS
ANTIGO         CLOUDY    61  48  61 SE6       29.95S                  
SHAWANO        CLOUDY    65  54  67 E6        29.94F                  
OCONTO         FAIR      63  51  65 E8        29.93F                  
STURGEON BAY   PTSUNNY   61  48  62 E8        29.95F                  
GREEN BAY      CLOUDY    59  52  77 NE8       29.94F                  
MANITOWOC      CLOUDY    54  47  77 NE7       29.95S                  
APPLETON       CLOUDY    57  45  62 NE8       29.92F                  
CLINTONVILLE   CLOUDY    62  50  65 E6        29.93F                  
OSHKOSH        CLOUDY    57  49  74 NE9       29.92S                  
$$
 
WIZ032>034-041-042-053>061-162100-
SOUTHWEST WISCONSIN
  
CITY           SKY/WX    TMP DP  RH WIND       PRES   REMARKS
LA CROSSE      CLOUDY    64  53  67 NW6       29.90S                  
SPARTA         CLOUDY    56  52  86 CALM      29.92S                  
VIROQUA        CLOUDY    61  59  93 NE6       29.91R                  
BOSCOBEL       CLOUDY    64  55  72 VRB5      29.91R                  
PRAIRIE DU CHI CLOUDY    63  55  77 NE5       29.89S                  
PLATTEVILLE    CLOUDY    62  60  96 N6        29.90R                  
$$

WIZ056-057-062-063-064-067-068-162100-
SOUTH CENTRAL WISCONSIN
  
CITY           SKY/WX    TMP DP  RH WIND       PRES   REMARKS
REEDSBURG      CLOUDY    56  56  97 NE5       29.91S                  
BARABOO/DELLS  CLOUDY    55  52  92 NE5       29.92R                  
LONE ROCK      NOT AVBL                                               
MINERAL POINT  CLOUDY    59 N/A N/A NE5       29.90R                  
MADISON        CLOUDY    59  54  83 NE9       29.89S                  
MIDDLETON      CLOUDY    60  56  84 NE9       29.90S                  
WATERTOWN      CLOUDY    58  56  95 NE8       29.89S                  
MONROE         CLOUDY    61  59  91 N8        29.88R                  
JANESVILLE     CLOUDY    64  57  77 N12       29.87S                  
$$
 
WIZ051-052-058>065-066-070>072-162100-
SOUTHEAST WISCONSIN
  
CITY           SKY/WX    TMP DP  RH WIND       PRES   REMARKS
MILWAUKEE      CLOUDY    54  47  77 N15       29.90F                  
WAUKESHA       CLOUDY    57  50  77 NE8G17    29.90F                  
MILWAUKEE/TIMM NOT AVBL                                               
RACINE         CLOUDY    55  48  77 NE14      29.91S                  
KENOSHA        CLOUDY    61  54  77 NE12      29.89S                  
FOND DU LAC    CLOUDY    60  50  69 NE13      29.92S                  
SHEBOYGAN      CLOUDY    55  47  74 NE13      29.93R                  
WEST BEND      CLOUDY    59  52  77 E14       29.91S                  
JUNEAU         CLOUDY    61  55  80 N10       29.90F                  
$$

LSZ147-162-162100-
LAKE SUPERIOR
  
STATION/POSITION TIME  TEMP    WIND        PRES    WAVE
                       AIR SEA DIR/SP/G            HT/PER
                 (UTC) (F)     (DEG/KT/KT) (MB)    (FT/S)
W MID LAKE BUOY  1850   41 38   30/ 14/ 14 1016.2F   1/ 3
$$
 
LMZ867-665-643>646-162100-
LAKE MICHIGAN
  
STATION/POSITION TIME  TEMP    WIND        PRES    WAVE
                       AIR SEA DIR/SP/G            HT/PER
                 (UTC) (F)     (DEG/KT/KT) (MB)    (FT/S)
S GREEN BAY BUOY 1930   56 60   40/ 12/ 14 1014.1F
N MID LAKE BUOY  1940   43 39   20/  8/  8 1014.8S
NORTHPORT PIER   1940   54      50/  4/  5 1014.6S
SHEBOYGAN LAKESH 1900   49      10/ 17/ 20 1013.6F
ATWATER BUOY     1930   48 50   30/ 17/ 21 1012.7F   3/20
MILWAUKEE LAKESH 1940   49      20/ 14/ 17   N/A
S MID LAKE BUOY  1940   45 44   10/ 10/ 12 1012.6R
KENOSHA   LAKESH 1900   53      20/ 18/ 21 1011.9
$$

TC  - TEMPERATURE IN CELSIUS
VSB - VISIBILITY IN STATUTE MILES
WCI - WIND CHILL INDEX
HX  - HEAT INDEX